Terug naar catalogus

STARLINK-30577

ActiefCommunicatieVLEO
NORAD 58053·PAYLOAD·🇺🇸 United States

Gelanceerd Oct 13, 2023 vanaf Cape Canaveral Space Force Station

Loading…

Volgende Passages (komende 24 uur)

TLE

VersSource: CelesTrak SupGP

Epoch: Sep 14, 2026, 22:06 UTC

1 58053C 23158C   26257.92131944  .00037816  00000+0  13697-2 0  2574
2 58053  43.0012  38.2904 0001608 272.3130   0.7367 15.27560092    13

Volg STARLINK-30577 in realtime met AllMySat

Download on the App Store